Weather History for La Porte, IN

Change the Weather History Date:

Tuesday, February 5, 2013

  Actual Average (KVPZ) Record (KVPZ)
Temperature  
Mean Temperature 16 °F 25 °F  
Max Temperature 29 °F 33 °F 47 °F (2005)
Min Temperature 4 °F 17 °F -10 °F (2007)
Degree Days  
Heating Degree Days 48 40  
Month to date heating degree days 202  
Since 1 July heating degree days 3887  
Cooling Degree Days 0 0  
Month to date cooling degree days 0  
Year to date cooling degree days 0  
Moisture  
Dew Point 21 °F    
Average Humidity 90    
Maximum Humidity 99    
Minimum Humidity 70    
Precipitation  
Precipitation 0.00 in 0.05 in 0.49 in (2008)
Month to date precipitation 0.22  
Year to date precipitation 1.97  
Sea Level Pressure  
Sea Level Pressure 29.90 in    
Wind  
Wind Speed 4 mph (West)    
Max Wind Speed 17 mph    
Max Gust Speed 24 mph    
Visibility 5 miles    
Events Fog , Snow    
T = Trace of Precipitation, MM = Missing Value Source: NWS Daily Summary

Daily Weather History Graph

Daily Weather History Graph

Search for Another Location

Airport:

Trip Planner

Search our weather history database for the weather conditions in past years. The results will help you decide how hot, cold, wet, or windy it might be!

Date:

Astronomy

Feb. 05, 2013 Rise Set
Actual Time 6:54 AM CST 5:08 PM CST
Civil Twilight 6:25 AM CST 5:37 PM CST
Nautical Twilight 5:52 AM CST 6:10 PM CST
Astronomical Twilight 5:19 AM CST 6:42 PM CST
Moon 2:36 AM CST (2/5) 12:23 PM CST (2/5)
Length of Visible Light 11h 12m
Length of Day
10h 14m
Waning Crescent, 26% of the Moon is Illuminated
Feb 5
Waning Crescent
Feb 10
New
Feb 17
First Quarter
Feb 25
Full
Mar 4
Last Quarter

Hourly Weather History & Observations

Time (CST) Temp. Windchill Dew Point Humidity Pressure Visibility Wind Dir Wind Speed Gust Speed Precip Events Conditions
12:15 AM 20.8 °F - 19.2 °F 93% 29.92 in 5.0 mi Calm Calm - N/A   Overcast
12:35 AM 21.4 °F - 19.9 °F 94% 29.93 in 5.0 mi Calm Calm - N/A Snow Light Snow
12:55 AM 21.2 °F - 19.9 °F 95% 29.92 in 4.0 mi Calm Calm - N/A Snow Light Snow
1:15 AM 21.2 °F - 19.9 °F 95% 29.92 in 5.0 mi Calm Calm - N/A Snow Light Snow
1:35 AM 21.2 °F - 19.9 °F 95% 29.91 in 5.0 mi Calm Calm - N/A Snow Light Snow
1:55 AM 20.7 °F - 19.4 °F 95% 29.92 in 5.0 mi Calm Calm - N/A   Overcast
2:15 AM 21.4 °F - 20.1 °F 95% 29.92 in 4.0 mi Calm Calm - N/A Snow Light Snow
2:35 AM 21.0 °F - 19.4 °F 93% 29.91 in 5.0 mi Calm Calm - N/A Snow Light Snow
2:55 AM 19.8 °F - 18.3 °F 94% 29.91 in 4.0 mi Calm Calm - N/A   Clear
3:15 AM 19.2 °F - 18.1 °F 96% 29.90 in 5.0 mi Calm Calm - N/A   Scattered Clouds
3:35 AM 16.0 °F 8.8 °F 14.5 °F 94% 29.89 in 2.0 mi ESE 4.6 mph - N/A   Mostly Cloudy
3:55 AM 16.0 °F - 14.5 °F 94% 29.89 in 1.0 mi Calm Calm - N/A   Mostly Cloudy
4:15 AM 12.2 °F - 10.4 °F 92% 29.89 in 0.2 mi Calm Calm - N/A Fog Light Freezing Fog
4:35 AM 7.5 °F - 5.2 °F 90% 29.91 in 0.2 mi Calm Calm - N/A Fog Light Freezing Fog
4:55 AM 15.3 °F - 13.8 °F 94% 29.90 in 0.8 mi Calm Calm - N/A   Mostly Cloudy
5:15 AM 6.4 °F - 3.7 °F 89% 29.90 in 0.2 mi Calm Calm - N/A Fog Light Freezing Fog
5:35 AM 4.1 °F - 1.2 °F 88% 29.90 in 0.2 mi Calm Calm - N/A Fog Light Freezing Fog
5:55 AM 8.4 °F - 6.4 °F 92% 29.90 in 0.5 mi Calm Calm - N/A Fog Light Freezing Fog
6:15 AM 12.0 °F - 10.2 °F 92% 29.90 in 0.2 mi Calm Calm - N/A Fog Light Freezing Fog
6:35 AM 12.7 °F - 11.1 °F 93% 29.90 in 0.2 mi Calm Calm - N/A Fog Light Freezing Fog
6:55 AM 14.0 °F - 12.6 °F 94% 29.91 in 1.2 mi Calm Calm - N/A   Overcast
7:15 AM 15.8 °F - 14.4 °F 94% 29.91 in 1.5 mi Calm Calm - N/A   Overcast
7:35 AM 16.7 °F - 15.4 °F 95% 29.91 in 1.5 mi Calm Calm - N/A   Overcast
7:55 AM 17.6 °F - 16.3 °F 95% 29.91 in 1.5 mi Calm Calm - N/A   Overcast
8:15 AM 18.3 °F 13.1 °F 17.1 °F 95% 29.91 in 2.5 mi South 3.5 mph - N/A   Overcast
9:15 AM 20.8 °F 12.1 °F 19.9 °F 96% 29.88 in 2.5 mi South 6.9 mph - N/A Snow Light Snow
9:35 AM 21.0 °F 13.4 °F 20.3 °F 97% 29.86 in 2.5 mi South 5.8 mph - N/A   Overcast
9:55 AM 22.8 °F 14.5 °F 22.3 °F 98% 29.86 in 4.0 mi South 6.9 mph - N/A   Mostly Cloudy
10:15 AM 24.8 °F 15.3 °F 24.4 °F 99% 29.86 in 4.0 mi South 9.2 mph - N/A   Mostly Cloudy
10:35 AM 24.6 °F 14.4 °F 24.3 °F 99% 29.86 in 7.0 mi SSW 10.4 mph - N/A   Mostly Cloudy
10:55 AM 25.5 °F 16.2 °F 25.3 °F 99% 29.85 in 7.0 mi SSW 9.2 mph - N/A   Mostly Cloudy
11:15 AM 26.4 °F 15.5 °F 26.2 °F 99% 29.83 in 7.0 mi SSW 12.7 mph 17.3 mph N/A   Overcast
11:35 AM 27.5 °F 15.9 °F 26.2 °F 95% 29.82 in 10.0 mi SSW 15.0 mph 18.4 mph N/A   Overcast
11:55 AM 28.6 °F 19.3 °F 24.6 °F 85% 29.81 in 7.0 mi SSW 10.4 mph - N/A   Overcast
12:15 PM 29.8 °F 19.3 °F 23.7 °F 78% 29.80 in 10.0 mi SSW 13.8 mph 20.7 mph N/A   Overcast
12:35 PM 29.3 °F 17.3 °F 23.7 °F 80% 29.80 in 10.0 mi SW 17.3 mph 24.2 mph N/A   Overcast
12:55 PM 29.5 °F 19.9 °F 24.4 °F 81% 29.80 in 10.0 mi SW 11.5 mph - N/A   Overcast
1:15 PM 29.3 °F 18.6 °F 24.8 °F 83% 29.80 in 7.0 mi SW 13.8 mph 20.7 mph N/A   Overcast
1:35 PM 29.7 °F 20.1 °F 25.3 °F 84% 29.80 in 7.0 mi SW 11.5 mph - N/A Snow Light Snow
1:55 PM 29.7 °F 20.1 °F 26.4 °F 88% 29.79 in 1.8 mi SW 11.5 mph 16.1 mph N/A Snow Light Snow
2:15 PM 29.5 °F 21.1 °F 26.6 °F 89% 29.80 in 1.8 mi WSW 9.2 mph - N/A Snow Light Snow
2:35 PM 29.3 °F 23.2 °F 27.1 °F 92% 29.81 in 1.0 mi West 5.8 mph - N/A Snow Light Snow
2:55 PM 29.7 °F 21.3 °F 27.9 °F 93% 29.82 in 1.0 mi WSW 9.2 mph - N/A Snow Light Snow
3:15 PM 29.7 °F 23.7 °F 28.4 °F 95% 29.82 in 0.8 mi West 5.8 mph - N/A Snow Light Snow
3:35 PM 29.7 °F 23.7 °F 28.8 °F 96% 29.83 in 0.5 mi West 5.8 mph - N/A Snow Light Snow
3:55 PM 29.8 °F 23.9 °F 29.1 °F 97% 29.84 in 0.8 mi West 5.8 mph - N/A Snow Light Snow
4:15 PM 29.7 °F 22.8 °F 28.8 °F 96% 29.85 in 2.5 mi West 6.9 mph - N/A Snow Light Snow
4:35 PM 29.7 °F 26.1 °F 28.4 °F 95% 29.86 in 2.0 mi WNW 3.5 mph - N/A Snow Light Snow
4:55 PM 29.3 °F 23.2 °F 28.0 °F 95% 29.86 in 4.0 mi WNW 5.8 mph - N/A Snow Light Snow
5:15 PM 29.3 °F 23.2 °F 27.5 °F 93% 29.87 in 5.0 mi WNW 5.8 mph - N/A   Overcast
5:35 PM 29.3 °F 22.3 °F 26.8 °F 90% 29.87 in 5.0 mi West 6.9 mph - N/A   Overcast
5:55 PM 29.3 °F 23.2 °F 26.6 °F 90% 29.88 in 5.0 mi WNW 5.8 mph - N/A   Overcast
6:15 PM 29.3 °F 24.3 °F 26.6 °F 90% 29.89 in 5.0 mi WNW 4.6 mph - N/A   Overcast
6:35 PM 29.3 °F 23.2 °F 26.6 °F 90% 29.91 in 5.0 mi WNW 5.8 mph - N/A   Overcast
6:55 PM 29.3 °F 24.3 °F 27.0 °F 91% 29.92 in 5.0 mi WNW 4.6 mph - N/A   Overcast
7:15 PM 29.3 °F 20.8 °F 26.1 °F 88% 29.93 in 5.0 mi NW 9.2 mph 16.1 mph N/A   Overcast
7:35 PM 29.1 °F 20.0 °F 25.3 °F 86% 29.95 in 7.0 mi WNW 10.4 mph 17.3 mph N/A   Overcast
7:55 PM 28.9 °F 19.8 °F 25.3 °F 86% 29.95 in 5.0 mi NW 10.4 mph - N/A   Overcast
8:15 PM 28.4 °F 18.5 °F 25.0 °F 87% 29.96 in 7.0 mi NW 11.5 mph 17.3 mph N/A   Overcast
8:35 PM 28.4 °F 18.5 °F 24.4 °F 85% 29.97 in 7.0 mi NW 11.5 mph 19.6 mph N/A   Overcast
8:55 PM 28.4 °F 18.0 °F 23.9 °F 83% 29.98 in 10.0 mi NW 12.7 mph 17.3 mph N/A   Overcast
9:15 PM 28.6 °F 18.2 °F 23.2 °F 80% 29.99 in 10.0 mi NW 12.7 mph 16.1 mph N/A   Overcast
9:35 PM 28.6 °F 20.7 °F 23.0 °F 80% 30.00 in 10.0 mi NW 8.1 mph 17.3 mph N/A   Overcast
10:15 PM 28.4 °F 19.7 °F 21.2 °F 74% 30.01 in 10.0 mi NW 9.2 mph - N/A   Overcast
10:35 PM 28.4 °F 21.2 °F 21.2 °F 74% 30.01 in 10.0 mi NW 6.9 mph - N/A   Overcast
10:55 PM 28.4 °F 19.7 °F 21.2 °F 74% 30.02 in 10.0 mi NW 9.2 mph - N/A   Overcast
11:15 PM 28.4 °F 20.4 °F 21.0 °F 74% 30.02 in 10.0 mi NW 8.1 mph - N/A   Overcast
11:35 PM 28.8 °F 20.9 °F 20.3 °F 71% 30.04 in 10.0 mi NW 8.1 mph - N/A   Overcast
11:55 PM 28.8 °F 20.9 °F 20.1 °F 70% 30.05 in 10.0 mi NW 8.1 mph - N/A   Overcast